FW9511 Weather Reports


Display with metric or nautical units.
time (UTC)temp
F
wind
direction
speed
MPH
gust
MPH
rain 1hr
in
rain 24hr
in
rain mn
in
humidity
%
barometer
mb
20260507230044 45 172 6.0 11.0 0.00 1.34 1.34 100 1002.5
20260507224600 45 179 3.0 10.0 0.00 1.34 1.34 100 1002.7
20260507223050 46 168 4.0 10.0 0.00 1.34 1.34 100 1002.5
20260507221539 46 161 7.0 14.0 0.00 1.34 1.34 100 1002.8
20260507220038 47 160 6.0 16.0 0.00 1.34 1.34 100 1002.8
20260507214542 48 202 8.0 20.0 0.01 1.34 1.34 100 1003.0
20260507213043 48 167 6.0 15.0 0.01 1.34 1.34 100 1003.2
20260507211554 48 195 9.0 16.0 0.02 1.34 1.34 100 1002.9
20260507210041 48 201 7.0 18.0 0.07 1.34 1.34 100 1002.8
20260507204538 48 144 8.0 17.0 0.10 1.33 1.33 100 1002.3
20260507203044 48 124 8.0 14.0 0.19 1.33 1.33 100 1003.2
20260507201543 48 137 4.0 11.0 0.29 1.32 1.32 100 1003.7
20260507200047 48 151 4.0 15.0 0.40 1.27 1.27 100 1003.9
20260507194541 48 164 6.0 14.0 0.58 1.23 1.23 100 1004.2
20260507193039 47 147 7.0 14.0 0.64 1.14 1.14 100 1004.9
20260507191539 46 145 5.0 14.0 0.69 1.03 1.03 100 1005.4
20260507190045 45 207 7.0 20.0 0.69 0.86 0.86 100 1005.7
20260507184543 45 233 9.0 22.0 0.49 0.63 0.63 100 1005.6
20260507183040 45 157 10.0 20.0 0.37 0.49 0.49 100 1005.8
20260507181542 44 199 10.0 21.0 0.23 0.33 0.33 99 1006.2
20260507180045 46 145 7.0 22.0 0.07 0.17 0.17 100 1005.9
20260507174540 46 112 13.0 26.0 0.03 0.13 0.13 100 1005.4
20260507173044 46 184 10.0 24.0 0.02 0.12 0.12 100 1005.5
20260507171542 47 137 12.0 27.0 0.01 0.10 0.10 100 1006.1
20260507170043 46 162 12.0 24.0 0.01 0.10 0.10 100 1006.1
20260507164541 46 163 12.0 24.0 0.01 0.10 0.10 100 1006.6
20260507163039 45 200 10.0 26.0 0.01 0.10 0.10 100 1007.1
20260507161545 45 169 11.0 22.0 0.00 0.09 0.09 100 1007.5
20260507160044 45 210 7.0 22.0 0.00 0.09 0.09 100 1008.1
20260507154544 45 171 12.0 24.0 0.00 0.09 0.09 100 1008.3
20260507153042 45 147 12.0 24.0 0.00 0.09 0.09 99 1008.8
20260507151543 45 172 12.0 30.0 0.00 0.09 0.09 99 1009.2
20260507150038 46 179 14.0 27.0 0.00 0.09 0.09 99 1009.2
20260507144538 46 193 14.0 26.0 0.00 0.09 0.09 99 1009.5
20260507143044 46 174 15.0 25.0 0.00 0.09 0.09 100 1009.7
20260507141543 46 155 12.0 26.0 0.00 0.09 0.09 100 1010.0
20260507140056 46 184 16.0 26.0 0.00 0.09 0.09 100 1010.4
20260507134541 46 141 14.0 23.0 0.00 0.09 0.09 99 1010.7
20260507133040 45 166 13.0 25.0 0.00 0.09 0.09 99 1010.7
20260507131547 46 164 14.0 28.0 0.00 0.09 0.09 100 1011.3
20260507130043 46 172 15.0 28.0 0.01 0.09 0.09 99 1010.9
20260507124545 46 184 15.0 27.0 0.01 0.09 0.09 100 1010.9
20260507123043 46 151 15.0 29.0 0.01 0.09 0.09 99 1010.6
20260507121540 47 172 14.0 29.0 0.02 0.09 0.09 100 1011.2
20260507120039 46 179 13.0 27.0 0.01 0.08 0.08 99 1011.1
20260507114538 46 184 15.0 26.0 0.03 0.08 0.08 100 1011.5
20260507113044 45 122 16.0 28.0 0.04 0.08 0.08 99 1011.9
20260507111547 46 148 14.0 26.0 0.03 0.07 0.07 99 1012.0
20260507110049 47 145 11.0 30.0 0.03 0.07 0.07 100 1011.8
20260507104541 46 144 15.0 27.0 0.02 0.05 0.05 100 1011.7
20260507103039 45 179 12.0 24.0 0.01 0.04 0.04 100 1012.2
20260507101556 45 179 12.0 24.0 0.01 0.04 0.04 99 1012.6
20260507100045 44 155 13.0 24.0 0.00 0.03 0.03 99 1012.5
20260507094554 44 170 12.0 24.0 0.00 0.03 0.03 99 1012.5
20260507093042 45 165 10.0 22.0 0.00 0.03 0.03 99 1012.3
20260507091553 45 169 10.0 21.0 0.00 0.03 0.03 99 1012.1
20260507090051 45 172 8.0 17.0 0.00 0.03 0.03 99 1012.5
20260507084538 46 141 11.0 23.0 0.00 0.03 0.03 99 1013.0
20260507083041 46 169 13.0 23.0 0.00 0.03 0.03 99 1013.0
20260507081553 45 165 9.0 20.0 0.02 0.03 0.03 99 1012.9
20260507080042 45 205 6.0 16.0 0.02 0.03 0.03 99 1013.1
20260507074541 45 174 8.0 19.0 0.03 0.03 0.03 99 1013.3
20260507073054 45 160 13.0 24.0 0.03 0.03 0.03 99 1013.7
20260507071538 44 166 12.0 20.0 0.01 0.01 0.01 99 1013.9
20260507070058 45 150 9.0 16.0 0.01 0.01 0.01 99 1013.9
20260507064550 45 179 8.0 17.0 0.00 0.00 0.00 99 1014.5
20260507063044 46 149 9.0 19.0 0.00 0.00 0.00 99 1014.7
20260507061543 45 179 8.0 16.0 0.00 0.00 0.00 99 1014.6
20260507060043 45 215 9.0 17.0 0.00 0.00 0.00 99 1015.0
20260507054546 45 162 7.0 16.0 0.00 0.00 0.00 99 1015.1
20260507053042 45 147 6.0 12.0 0.00 0.00 0.00 99 1015.4
20260507051539 45 160 6.0 13.0 0.00 0.00 0.00 99 1015.8
20260507050037 45 179 5.0 11.0 0.00 0.00 0.00 99 1015.9
20260507044545 44 153 4.0 10.0 0.00 0.00 0.00 99 1016.4
20260507043041 44 194 3.0 8.0 0.00 0.00 0.00 99 1016.5
20260507041538 44 146 5.0 9.0 0.00 0.00 0.00 98 1016.9
20260507040049 44 170 3.0 9.0 0.00 0.00 0.00 98 1017.2
20260507034547 44 126 2.0 6.0 0.00 0.00 0.00 98 1017.5
20260507033044 44 151 3.0 5.0 0.00 0.00 0.00 98 1017.7
20260507031542 44 198 3.0 8.0 0.00 0.00 0.00 98 1017.9
20260507030041 44 176 4.0 10.0 0.00 0.00 0.00 98 1017.9
20260507024538 44 151 6.0 13.0 0.00 0.00 0.00 98 1018.1
20260507023037 44 172 5.0 11.0 0.00 0.00 0.00 98 1018.5
20260507021543 45 174 6.0 12.0 0.00 0.00 0.00 98 1018.6
20260507020040 45 174 6.0 13.0 0.00 0.00 0.00 98 1018.6
20260507014552 44 172 7.0 14.0 0.00 0.00 0.00 97 1018.6
20260507013038 45 179 10.0 17.0 0.00 0.00 0.00 97 1018.8
20260507011538 46 205 7.0 16.0 0.00 0.00 0.00 98 1018.9
20260507010038 46 175 8.0 16.0 0.00 0.00 0.00 97 1019.1
20260507004543 46 160 7.0 16.0 0.00 0.00 0.00 97 1019.2
20260507003039 46 173 8.0 16.0 0.00 0.00 0.00 97 1019.0
20260507001538 45 194 6.0 11.0 0.00 0.00 0.00 97 1019.2
20260507000045 45 179 6.0 13.0 0.00 0.00 0.00 97 1019.2
20260506234544 44 167 9.0 15.0 0.00 0.00 0.00 97 1019.2
20260506233044 45 202 9.0 18.0 0.00 0.00 0.00 96 1019.1
20260506231542 45 174 11.0 22.0 0.00 0.00 0.00 96 1018.9